Regional Weather Roundup
Issued by NWS

Home | Current Version | Previous Version | Graphics & Text | Print | Product List | Glossary On
Versions: 1 2 3 4 5 6 7 8 9 10 11 12 13 14 15 16 17 18 19 20 21 22 23 24 25 26 27 28 29 30 31 32 33 34 35 36 37 38 39 40 41 42 43 44 45 46 47 48 49 50
000
ASUS43 KOAX 251710
RWRNE

WEATHER ROUNDUP FOR NEBRASKA
NATIONAL WEATHER SERVICE OMAHA NE
1200 PM CDT FRI JUL 25 2014

NOTES: SATELLITE DATA IS BEING USED TO AUGMENT CLOUD COVER ABOVE
       12000 FEET.
       "FAIR" INDICATES FEW OR NO CLOUDS BELOW 12,000 FEET WITH NO
       SIGNIFICANT WEATHER AND/OR OBSTRUCTIONS TO VISIBILITY.

  * THESE STATIONS DO NOT REPORT WEATHER SUCH AS RAIN...SNOW OR FOG.

NEZ001>004-019>022-054>056-251800-
NEBRASKA PANHANDLE

CITY           SKY/WX    TMP DP  RH WIND       PRES   REMARKS
SCOTTSBLUFF    PTSUNNY   78  42  27 E8        30.04R
ALLIANCE       PTSUNNY   78  45  30 N14       30.01F
CHADRON        SUNNY     79  32  18 NE12      30.00F
KIMBALL        MOSUNNY   75  57  53 NE10      30.07F
SIDNEY         MOSUNNY   81  50  33 N10       30.05F
$$

NEZ057>060-069>072-079>082-251800-
SOUTHWEST NEBRASKA

CITY           SKY/WX    TMP DP  RH WIND       PRES   REMARKS
NORTH PLATTE   MOSUNNY   84  63  49 N10       29.90R
IMPERIAL       MOSUNNY   83  61  47 N13       29.95S
LEXINGTON      SUNNY     86  67  53 N13       29.86R
MCCOOK         MOSUNNY   87  62  43 N10       29.88R
OGALLALA       MOSUNNY   82  57  41 N14G20    29.97S
$$

NEZ005>010-023>029-035>040-094-251800-
NORTH CENTRAL NEBRASKA

CITY           SKY/WX    TMP DP  RH WIND       PRES   REMARKS
VALENTINE      MOSUNNY   79  64  60 N16       29.91R
AINSWORTH      MOSUNNY   79  67  66 NW16G22   29.89R
BROKEN BOW     MOSUNNY   84  69  60 N15G21    29.86R
O`NEILL        SUNNY     85  66  53 N9        29.81R
ORD            SUNNY     84  67  56 N13       29.80S
THEDFORD       SUNNY     82  66  60 N16G22    29.91S
$$

NEZ041-046>049-061>064-073>077-083>087-251800-
SOUTH CENTRAL NEBRASKA

CITY           SKY/WX    TMP DP  RH WIND       PRES   REMARKS
GRAND ISLAND   SUNNY     90  66  45 NW12      29.79R HX  92
AURORA         SUNNY     87  68  52 W8        29.78S HX  91
HASTINGS       SUNNY     89  61  38 NW12      29.80S
HEBRON         SUNNY     92  64  39 W13       29.78R HX  93
HOLDREGE       MOSUNNY   87  64  46 NW6       29.83S
KEARNEY *      SUNNY     90  63  40 NW12      29.83R HX  90
YORK           SUNNY     88  72  58 NW14      29.77S HX  94
$$

NEZ011>018-030>034-042>045-251800-
NORTHEAST NEBRASKA

CITY           SKY/WX    TMP DP  RH WIND       PRES   REMARKS
NORFOLK        MOSUNNY   86  71  60 W8        29.75S HX  91
ALBION         SUNNY     85  68  56 NW9       29.77S
BLAIR          SUNNY     81  70  68 E13       29.76F
COLUMBUS *     SUNNY     88  70  55 W7        29.74S HX  92
FREMONT        SUNNY     85  72  66 SE12      29.74F HX  90
WAYNE          MOSUNNY   82  72  71 SE15      29.75F
$$

NEZ050>053-065>068-078-088>093-251800-
SOUTHEAST NEBRASKA

CITY           SKY/WX    TMP DP  RH WIND       PRES   REMARKS
LINCOLN        SUNNY     92  69  47 SW10      29.75F HX  97
OMAHA EPPLEY   SUNNY     84  69  60 SE18      29.75F
BEATRICE       SUNNY     92  72  51 W14       29.76F HX  99
FALLS CITY     MOSUNNY   93  72  50 S17       29.78F HX 101
NEBRASKA CITY  SUNNY     90  70  51 SW8G16    29.77F HX  95
PLATTSMOUTH    SUNNY     85  71  63 SE10      29.77F HX  91
$$

NEZ044-045-051>053-067-251800-
OMAHA AREA

CITY           SKY/WX    TMP DP  RH WIND       PRES   REMARKS
OMAHA EPPLEY   SUNNY     84  69  60 SE18      29.75F
BLAIR          SUNNY     81  70  68 E13       29.76F
FREMONT        SUNNY     85  72  66 SE12      29.74F HX  90
MILLARD        SUNNY     85  73  67 SE12      29.75F HX  91
OFFUTT AFB     SUNNY     85  75  70 SE13      29.76F HX  93
PLATTSMOUTH    SUNNY     85  71  63 SE10      29.77F HX  91
WAHOO          FAIR      87  75  66 SE10G16   29.73F HX  97
$$


USA.gov is the U.S. government's official web portal to all federal, state and local government web resources and services.